[[{"header":{"parameterUnit":"m.s-1","parameterCategory":1,"la1":30.2991,"la2":30.254,"lo1":-89.0895,"lo2":-89.0444,"dy":0.0017,"dx":0.0017,"nx":28,"ny":28,"refTime":"2024-03-03T09:00:00:Z","depth":0,"parameterNumber":2,"parameterNumberName":"U-component_of_WINDS"},"data":[0,0,0,0,0,0,0,0,0,0,0,0,0,0,0,0,0,0,0,0,0,0,0,0,0,0,0,0,0,0,0,0,0,0,0,0,0,0,0,0,0,0,0,0,0,0,0,0,0,0,0,0,0,0,0,0,0,0,-3.0998,-3.0998,0,-3.0987,-3.0987,-3.0987,-3.0905,-3.0903,-3.0901,-3.09,-3.0888,-3.089,-3.0892,0,0,0,0,0,0,0,0,0,0,0,0,0,-3.0953,-3.0954,-3.0998,-3.0998,-3.0998,-3.0987,-3.0987,-3.0987,-3.0906,-3.0903,-3.0901,-3.0899,-3.0888,-3.089,-3.0892,0,0,0,0,0,0,0,0,0,0,0,0,0,-3.096,-3.0955,-3.0999,-3.0956,-3.0953,-3.0987,-3.0987,-3.0987,-3.0906,-3.0903,-3.09,-3.0898,-3.0887,-3.089,-3.0892,-3.0966,0,0,-3.0899,-3.09,0,0,0,0,0,0,0,0,-3.096,-3.0962,-3.0963,-3.0959,-3.0955,-3.0945,-3.0967,-3.098,-3.0907,-3.0924,-3.09,-3.0896,-3.091,-3.091,-3.0914,-3.0966,-3.0965,-3.0899,-3.0901,-3.0902,-3.0902,0,0,0,0,0,0,0,-3.096,-3.0962,-3.0994,-3.0963,-3.0958,-3.0939,-3.0937,-3.0969,-3.0934,-3.0922,-3.0916,-3.0916,-3.0907,-3.0912,-3.0914,-3.0965,-3.0899,-3.0901,-3.0903,-3.0904,-3.1079,-3.1082,0,0,0,0,0,0,-3.0965,-3.0962,-3.0994,-3.0994,-3.095,-3.0942,-3.094,-3.0951,-3.0933,-3.0927,-3.0919,-3.0912,-3.091,-3.0911,-3.0913,-3.0999,-3.0902,-3.0904,-3.0905,-3.1076,-3.108,-3.1083,0,0,0,0,0,0,-3.0964,-3.0968,-3.0995,-3.0976,-3.0978,-3.0946,-3.096,-3.0952,-3.0957,-3.093,-3.0924,-3.093,-3.0907,-3.091,-3.0954,-3.0998,-3.0905,-3.0907,-3.1072,-3.1077,-3.1082,-3.1173,0,0,0,0,0,0,-3.0963,-3.0969,-3.0995,-3.0978,-3.098,-3.1035,-3.0962,-3.0954,-3.0962,-3.0953,-3.094,-3.0934,-3.0905,-3.0951,-3.0956,-3.0999,-3.0909,-3.1068,-3.1074,-3.108,-3.1165,-3.118,-3.1192,0,0,0,0,0,-3.0962,-3.1021,-3.0997,-3.1001,-3.1012,-3.1038,-3.1039,-3.1004,-3.0966,-3.0993,-3.0976,-3.0935,-3.0993,-3.0956,-3.0962,-3.1006,-3.1065,-3.1073,-3.108,-3.1159,-3.1177,-3.1192,0,0,0,0,0,0,-3.1044,-3.1018,-3.0991,-3.1046,-3.1045,-3.1024,-3.1057,-3.1024,-3.1033,-3.1025,-3.0982,-3.098,-3.1031,-3.1023,-3.0983,-3.1078,-3.1022,-3.1031,-3.1081,-3.1097,-3.1111,-3.1111,-3.0911,0,0,0,0,0,-3.1069,-3.1091,-3.1067,-3.1118,-3.1119,-3.1089,-3.1099,-3.1072,-3.1069,-3.1068,-3.1055,-3.1054,-3.1072,-3.1084,-3.1099,-3.1165,-3.1161,-3.1199,-3.1212,-3.1223,-3.1231,-3.1266,-3.1283,-3.1108,-3.1107,-3.1107,0,0,-3.1119,-3.1108,-3.1124,-3.1135,-3.1131,-3.1156,-3.1089,-3.1118,-3.1136,-3.1073,-3.1114,-3.1105,-3.1101,-3.1157,-3.1181,-3.1152,-3.1279,-3.1233,-3.1242,-3.1243,-3.1276,-3.1292,-3.1307,-3.1113,-3.1112,-3.1111,0,0,-3.1224,-3.1218,-3.126,-3.1259,-3.1254,-3.1234,-3.1245,-3.123,-3.1221,-3.1262,-3.1216,-3.1238,-3.127,-3.127,-3.1274,-3.1384,-3.1347,-3.1391,-3.146,-3.1495,-3.1509,-3.1521,-3.1561,-3.1575,-3.1399,-3.1399,-3.1399,0,-3.1287,-3.1323,-3.1286,-3.1319,-3.1326,-3.1271,-3.1315,-3.1315,-3.1316,-3.1322,-3.129,-3.1331,-3.1324,-3.138,-3.1407,-3.1413,-3.1424,-3.1391,-3.151,-3.1522,-3.1532,-3.157,-3.1585,-3.1404,-3.1404,-3.1403,-3.1403,0,-3.1401,-3.1427,-3.1463,-3.1465,-3.1476,-3.1515,-3.1485,-3.1501,-3.1475,-3.1459,-3.1503,-3.1494,-3.1507,-3.1519,-3.1494,-3.1573,-3.1555,-3.1518,-3.146,-3.1555,-3.1589,-3.1603,-3.1412,-3.141,-3.1408,-3.1407,0,0,-3.1553,-3.1539,-3.1552,-3.1554,-3.1547,-3.1567,-3.1604,-3.1618,-3.1633,-3.1636,-3.1667,-3.1697,-3.1663,-3.1668,-3.1643,-3.1674,-3.1763,-3.1633,-3.1632,-3.1657,-3.1851,-3.1878,-3.1895,-3.174,-3.1742,-3.1744,-3.1851,0,-3.1654,-3.1715,-3.1686,-3.1751,-3.1775,-3.1727,-3.1759,-3.1759,-3.1747,-3.1766,-3.1752,-3.1775,-3.1728,-3.1731,-3.176,-3.1746,-3.1801,-3.1738,-3.1768,-3.1769,-3.1768,-3.1913,-3.1941,-3.2041,-3.1864,-3.1866,-3.1868,0,-3.1778,-3.1789,-3.1857,-3.1848,-3.1857,-3.1887,-3.1898,-3.1918,-3.1918,-3.1907,-3.1915,-3.1883,-3.1921,-3.1866,-3.1917,-3.1875,-3.1886,-3.1882,-3.1885,-3.1884,-3.1823,-3.1916,-3.2072,-3.2087,-3.1889,-3.1887,-3.1885,0,-3.1882,-3.1913,-3.1959,-3.1962,-3.1953,-3.1975,-3.1973,-3.197,-3.1982,-3.1992,-3.1999,-3.2015,-3.2023,-3.2036,-3.201,-3.1972,-3.2065,-3.2008,-3.2057,-3.2058,-3.2077,-3.2076,-3.2237,-3.2087,-3.2087,-3.2086,-3.2086,0,-3.1996,-3.204,-3.2005,-3.2033,-3.2081,-3.2049,-3.2097,-3.209,-3.2089,-3.2115,-3.2075,-3.21,-3.2065,-3.2088,-3.2069,-3.2115,-3.2119,-3.2111,-3.2105,-3.2114,-3.2115,-3.2119,-3.2111,-3.209,-3.2089,-3.2089,-3.2088,0,-3.2119,-3.2097,-3.2144,-3.2133,-3.2132,-3.2168,-3.2159,-3.2185,-3.2171,-3.2205,-3.2211,-3.219,-3.2215,-3.2191,-3.2215,-3.2202,-3.2264,-3.2248,-3.2263,-3.2258,-3.2309,-3.2305,-3.2477,-3.2498,-3.2336,-3.2338,-3.2339,0,-3.2192,-3.2225,-3.2219,-3.2234,-3.2234,-3.2259,-3.227,-3.2241,-3.2255,-3.2261,-3.2286,-3.2308,-3.2324,-3.2367,-3.2353,-3.2372,-3.2356,-3.2416,-3.2358,-3.2367,-3.2356,-3.2354,-3.2358,-3.2426,-3.2428,-3.243,-3.2431,0,-3.2324,-3.2313,-3.2332,-3.2348,-3.2364,-3.2375,-3.2383,-3.2398,-3.2368,-3.2387,-3.2412,-3.2425,-3.2451,-3.2473,-3.2488,-3.2486,-3.2454,-3.245,-3.2462,-3.247,-3.2478,-3.2474,-3.2294,-3.2445,-3.2444,-3.2443,-3.2442,-3.2441,-3.2424,-3.2451,-3.2452,-3.2475,-3.2479,-3.2489,-3.2513,-3.2504,-3.2525,-3.2543,-3.2526,-3.2557,-3.256,-3.2577,-3.258,-3.2605,-3.258,-3.2598,-3.2602,-3.2607,-3.2614,-3.2476,-3.2608,-3.2607,-3.2607,-3.2606,-3.2606,0,-3.2553,-3.2553,-3.2575,-3.2588,-3.2608,-3.2578,-3.2586,-3.2604,-3.2632,-3.2638,-3.2655,-3.2686,-3.2709,-3.27,-3.272,-3.2742,-3.2728,-3.2748,-3.2746,-3.2746,-3.2635,-3.2622,-3.276,-3.276,-3.276,-3.276,-3.2759,-3.2759,-3.2623,-3.2668,-3.2659,-3.2707,-3.2706,-3.2737,-3.2745,-3.2754,-3.2758,-3.2795,-3.2814,-3.2809,-3.2809,-3.283,-3.285,-3.2847,-3.2856,-3.2881,-3.2873,-3.2769,-3.2754,-3.2739,-3.2727,-3.2884,-3.2884,-3.2981,-3.2982,-3.2983]},{"header":{"parameterUnit":"m.s-1","parameterCategory":1,"la1":30.2991,"la2":30.254,"lo1":-89.0895,"lo2":-89.0444,"dy":0.0017,"dx":0.0017,"nx":28,"ny":28,"refTime":"2024-03-03T09:00:00:Z","depth":0,"parameterNumber":3,"parameterNumberName":"V-component_of_WINDS"},"data":[0,0,0,0,0,0,0,0,0,0,0,0,0,0,0,0,0,0,0,0,0,0,0,0,0,0,0,0,0,0,0,0,0,0,0,0,0,0,0,0,0,0,0,0,0,0,0,0,0,0,0,0,0,0,0,0,0,0,1.7876,1.7876,0,1.7874,1.7874,1.7874,1.7937,1.7938,1.794,1.7942,1.7932,1.7931,1.7929,0,0,0,0,0,0,0,0,0,0,0,0,0,1.7927,1.7926,1.7876,1.7876,1.7876,1.7874,1.7874,1.7874,1.7936,1.7938,1.7941,1.7942,1.7933,1.7931,1.7929,0,0,0,0,0,0,0,0,0,0,0,0,0,1.7913,1.7926,1.7876,1.7907,1.791,1.7874,1.7874,1.7874,1.7936,1.7939,1.7941,1.7943,1.7934,1.7931,1.7928,1.786,0,0,1.792,1.7919,0,0,0,0,0,0,0,0,1.7914,1.7911,1.7902,1.7905,1.7908,1.7908,1.7889,1.7869,1.7935,1.7926,1.7942,1.7945,1.7922,1.792,1.7914,1.786,1.7859,1.792,1.7918,1.7917,1.7916,0,0,0,0,0,0,0,1.7915,1.7911,1.7875,1.7902,1.7905,1.7919,1.792,1.7885,1.7909,1.7927,1.7931,1.7931,1.7924,1.7916,1.7914,1.7859,1.792,1.7917,1.7916,1.7914,1.775,1.7748,0,0,0,0,0,0,1.7912,1.7912,1.7875,1.7875,1.7917,1.7916,1.7917,1.7905,1.791,1.7913,1.7929,1.7934,1.792,1.7917,1.7914,1.7836,1.7917,1.7914,1.7913,1.7753,1.775,1.7747,0,0,0,0,0,0,1.7913,1.7908,1.7875,1.7895,1.7891,1.7913,1.7899,1.7904,1.7897,1.7911,1.7915,1.7917,1.7922,1.7918,1.7874,1.7836,1.7913,1.791,1.7756,1.7752,1.7748,1.7677,0,0,0,0,0,0,1.7914,1.7908,1.7884,1.7894,1.789,1.7836,1.7897,1.7902,1.7893,1.79,1.7902,1.7904,1.7924,1.7878,1.7871,1.7834,1.7908,1.776,1.7754,1.775,1.7683,1.7671,1.7661,0,0,0,0,0,1.7916,1.7862,1.7882,1.7878,1.786,1.7834,1.7832,1.7857,1.789,1.7865,1.7874,1.7904,1.7842,1.7873,1.7866,1.7827,1.7762,1.7756,1.775,1.7688,1.7673,1.7661,0,0,0,0,0,0,1.7844,1.7864,1.7887,1.7835,1.7833,1.7845,1.7814,1.7841,1.7827,1.7834,1.7864,1.7864,1.7815,1.7816,1.7851,1.7762,1.7807,1.7799,1.7762,1.7749,1.7738,1.7738,1.7906,0,0,0,0,0,1.7823,1.7802,1.7819,1.7772,1.777,1.7792,1.7781,1.7801,1.7799,1.7798,1.7804,1.7799,1.7779,1.7764,1.7745,1.7684,1.7685,1.7654,1.7643,1.7634,1.7626,1.7594,1.7581,1.7727,1.7727,1.7727,0,0,1.7777,1.7786,1.777,1.7758,1.7758,1.7734,1.779,1.7762,1.7744,1.7793,1.7753,1.7757,1.7753,1.77,1.7677,1.77,1.7587,1.7626,1.7619,1.7616,1.7587,1.7573,1.7561,1.7723,1.7723,1.7724,0,0,1.7682,1.7687,1.7648,1.7649,1.765,1.7666,1.7656,1.7665,1.7671,1.7632,1.7668,1.7646,1.761,1.7606,1.7599,1.7505,1.7532,1.7498,1.744,1.7409,1.7397,1.7387,1.7354,1.7341,1.7491,1.7491,1.7491,0,1.7625,1.7592,1.7624,1.7595,1.7588,1.7634,1.7594,1.7592,1.7586,1.758,1.7607,1.7564,1.7564,1.7512,1.7489,1.7482,1.7471,1.7497,1.7397,1.7387,1.7378,1.7346,1.7334,1.7487,1.7487,1.7487,1.7488,0,1.7522,1.7498,1.7467,1.7464,1.7453,1.7418,1.7443,1.7429,1.745,1.7462,1.7422,1.7425,1.7409,1.7398,1.7417,1.7348,1.7362,1.7392,1.7438,1.736,1.733,1.7318,1.7481,1.7482,1.7483,1.7484,0,0,1.7379,1.7397,1.7384,1.7384,1.739,1.7372,1.7339,1.7326,1.7313,1.7307,1.728,1.7249,1.7278,1.7271,1.729,1.7263,1.7188,1.7296,1.7297,1.7276,1.7112,1.7089,1.7075,1.7207,1.7205,1.7203,1.7113,0,1.7288,1.7235,1.7263,1.7206,1.7185,1.7229,1.7201,1.72,1.7211,1.7193,1.7204,1.7183,1.7222,1.7218,1.7193,1.7203,1.7156,1.721,1.718,1.7179,1.7179,1.7059,1.7034,1.6948,1.7101,1.7099,1.7098,0,1.7173,1.7166,1.7107,1.7119,1.7111,1.7085,1.7076,1.7059,1.706,1.7069,1.7062,1.7089,1.7056,1.7103,1.7058,1.7094,1.7083,1.7086,1.7084,1.7081,1.7133,1.7053,1.6922,1.6909,1.708,1.7082,1.7083,0,1.7075,1.7051,1.7013,1.7011,1.7024,1.7005,1.7009,1.7012,1.7003,1.6994,1.6989,1.6975,1.6967,1.6956,1.6977,1.701,1.6929,1.6978,1.6935,1.6934,1.6915,1.6915,1.678,1.6909,1.6909,1.6909,1.691,0,1.6969,1.6931,1.697,1.6946,1.6905,1.6938,1.6895,1.6904,1.6907,1.6885,1.6922,1.69,1.693,1.6911,1.6927,1.6887,1.6883,1.6889,1.6894,1.6886,1.6885,1.6879,1.6885,1.6906,1.6907,1.6908,1.6908,0,1.6852,1.6877,1.6838,1.6855,1.6858,1.6827,1.684,1.6818,1.6832,1.6804,1.6799,1.6821,1.68,1.6821,1.6801,1.6812,1.6758,1.6772,1.6759,1.6762,1.6719,1.6722,1.6573,1.6555,1.6697,1.6695,1.6694,0,1.6782,1.6755,1.6769,1.6758,1.6761,1.6742,1.6734,1.6765,1.6755,1.6755,1.6732,1.6716,1.6704,1.6668,1.6681,1.6666,1.6679,1.6628,1.6676,1.6669,1.6678,1.6679,1.6676,1.6617,1.6615,1.6614,1.6613,0,1.6656,1.667,1.6658,1.665,1.664,1.6635,1.6632,1.6621,1.6653,1.6639,1.662,1.6611,1.6592,1.6575,1.6564,1.6566,1.6594,1.6598,1.6587,1.6578,1.6572,1.6574,1.6731,1.6601,1.6602,1.6603,1.6604,1.6604,1.656,1.6538,1.6546,1.6531,1.6533,1.653,1.6511,1.6525,1.651,1.6499,1.6518,1.6494,1.6496,1.6485,1.6484,1.6464,1.6485,1.647,1.6466,1.6461,1.6455,1.6576,1.6462,1.6463,1.6463,1.6463,1.6463,0,1.6436,1.6443,1.643,1.6427,1.6415,1.6446,1.6445,1.6433,1.6412,1.6413,1.6401,1.6379,1.6363,1.6376,1.6362,1.6344,1.6356,1.6339,1.634,1.634,1.6437,1.6447,1.6329,1.6329,1.6329,1.6329,1.6329,1.6329,1.6369,1.6334,1.6349,1.6315,1.6323,1.6302,1.6299,1.6296,1.6297,1.6272,1.6259,1.6269,1.6274,1.6261,1.6247,1.6251,1.6244,1.6222,1.623,1.632,1.6333,1.6345,1.6356,1.622,1.622,1.6135,1.6134,1.6134]}]]